sat.trackr.live / text

‹ back to catalog

STARLINK-36326

NORAD 68519 · 2026-068M

PAYLOAD ACTIVE UNKNOWN

§ Identity

Operator
Country
US
Launch date
2026-03-30
Launch site
AFETR
Launch vehicle
Mass (kg)
RCS (m²)

Purposes: comms

External: N2YO · Heavens-Above · Gunter

§ Orbital elements

Epoch: 2026-09-19T19:39:34.585056Z

Period
93.85 min
Inclination
53.1622°
Eccentricity
0.0000507
Mean motion
15.34403963 rev/d
Perigee alt
462.3 km
Apogee alt
463.0 km
Semi-major
6,840.8 km
B*
4.5070e-4
RAAN
302.8281°
Arg perigee
84.6326°
Mean anomaly
275.4734°
Rev number
2,673

§ Raw data

STARLINK-363261 68519U 26068M   26262.81915029  .00014884  00000+0  45070-3 0  99972 68519  53.1622 302.8281 0000507  84.6326 275.4734 15.34403963 26733

JSON: /api/v1/satellites/68519 · /tle

For live sub-satellite position, see the globe view (requires WebGL).

§ Visibility from observer

Set your observer location to see the next 7 days of passes ≥ 10°. The values pass through the URL so the page stays shareable.

No JS? Fill the form by hand. The geolocation button needs JavaScript.